Weather History for Buckland, AK

Change the Weather History Date:

Tuesday, March 26, 2013

  Actual Average (PASK) Record (PASK)
Temperature  
Mean Temperature -8 °F -  
Max Temperature -5 °F 4 °F 24 °F (2005)
Min Temperature -11 °F -6 °F -32 °F (1997)
Degree Days  
Heating Degree Days 73    
Moisture  
Dew Point -17 °F    
Average Humidity 69    
Maximum Humidity 100    
Minimum Humidity 41    
Precipitation  
Precipitation 0.00 in - - ()
Sea Level Pressure  
Sea Level Pressure 30.11 in    
Wind  
Wind Speed 12 mph (WSW)    
Max Wind Speed 17 mph    
Max Gust Speed 24 mph    
Visibility 6 miles    
Events      
Averages and records for this station are not official NWS values.
T = Trace of Precipitation, MM = Missing Value Source: NWS Daily Summary

Daily Weather History Graph

Daily Weather History Graph

Search for Another Location

Airport:

Trip Planner

Search our weather history database for the weather conditions in past years. The results will help you decide how hot, cold, wet, or windy it might be!

Date:

Astronomy

Mar. 26, 2013 Rise Set
Actual Time 8:19 AM AKDT 9:22 PM AKDT
Civil Twilight 7:27 AM AKDT 10:14 PM AKDT
Nautical Twilight 6:20 AM AKDT 11:22 PM AKDT
Astronomical Twilight 4:55 AM AKDT 12:50 AM AKDT
Moon 9:24 PM AKDT (3/26) 7:46 AM AKDT (3/26)
Length of Visible Light 14h 47m
Length of Day
13h 02m
Full, 100% of the Moon is Illuminated
Mar 26
Full
Mar 27
Full
Apr 2
Last Quarter
Apr 10
New
Apr 18
First Quarter

Hourly Weather History & Observations

Time (AKDT) Temp. Windchill Dew Point Humidity Pressure Visibility Wind Dir Wind Speed Gust Speed Precip Events Conditions
12:16 AM -9.4 °F -32.1 °F -14.8 °F 77% 29.97 in 5.0 mi WSW 16.1 mph - N/A   Clear
12:36 AM -9.4 °F -31.4 °F -16.6 °F 71% 29.97 in 5.0 mi WSW 15.0 mph - N/A   Clear
12:56 AM -11.2 °F -33.7 °F -16.6 °F 77% 29.98 in 3.0 mi WSW 15.0 mph - N/A   Clear
1:16 AM -11.2 °F -26.4 °F -20.2 °F 64% 29.99 in 3.0 mi SW 6.9 mph - N/A   Mostly Cloudy
1:36 AM -11.2 °F -29.0 °F -16.6 °F 77% 29.99 in 5.0 mi WSW 9.2 mph - N/A   Mostly Cloudy
1:56 AM -11.2 °F -26.4 °F -18.4 °F 70% 29.99 in 3.0 mi WSW 6.9 mph - N/A   Mostly Cloudy
2:16 AM -11.2 °F -27.8 °F -18.4 °F 70% 29.99 in 4.0 mi SW 8.1 mph - N/A   Scattered Clouds
2:36 AM -11.2 °F -32.1 °F -16.6 °F 77% 29.98 in 5.0 mi SW 12.7 mph - N/A   Partly Cloudy
2:56 AM -11.2 °F -31.1 °F -16.6 °F 77% 29.99 in 6.0 mi SW 11.5 mph 17.3 mph N/A   Scattered Clouds
3:16 AM -11.2 °F -32.1 °F -18.4 °F 70% 29.99 in 4.0 mi WSW 12.7 mph 18.4 mph N/A   Mostly Cloudy
3:36 AM -9.4 °F -29.8 °F -16.6 °F 71% 30.00 in 3.0 mi WSW 12.7 mph 21.9 mph N/A   Mostly Cloudy
3:56 AM -11.2 °F -29.0 °F -16.6 °F 77% 30.00 in 3.0 mi West 9.2 mph - N/A   Mostly Cloudy
4:16 AM -9.4 °F -20.9 °F -18.4 °F 65% 30.00 in 5.0 mi West 4.6 mph - N/A   Mostly Cloudy
4:36 AM -11.2 °F -31.1 °F -14.8 °F 84% 30.01 in 7.0 mi WSW 11.5 mph - N/A   Scattered Clouds
4:56 AM -11.2 °F -32.1 °F -20.2 °F 64% 30.01 in 6.0 mi WSW 12.7 mph - N/A   Mostly Cloudy
5:16 AM -9.4 °F -28.9 °F -16.6 °F 71% 30.02 in 5.0 mi WSW 11.5 mph - N/A   Overcast
5:36 AM -9.4 °F -28.9 °F -18.4 °F 65% 30.01 in 3.0 mi WSW 11.5 mph - N/A   Overcast
5:56 AM -9.4 °F -29.8 °F -14.8 °F 77% 30.02 in 4.0 mi WSW 12.7 mph - N/A   Overcast
6:16 AM -9.4 °F -29.8 °F -18.4 °F 65% 30.02 in 1.8 mi WSW 12.7 mph 21.9 mph N/A   Overcast
6:36 AM -9.4 °F -30.6 °F -14.8 °F 77% 30.02 in 3.0 mi WSW 13.8 mph - N/A   Overcast
6:56 AM -7.6 °F -27.5 °F -18.4 °F 59% 30.03 in 6.0 mi WSW 12.7 mph - N/A   Mostly Cloudy
7:16 AM -7.6 °F -28.3 °F -14.8 °F 71% 30.03 in 4.0 mi West 13.8 mph 24.2 mph N/A   Mostly Cloudy
7:36 AM -9.4 °F -28.9 °F -23.8 °F 49% 30.03 in 5.0 mi WSW 11.5 mph 18.4 mph N/A   Mostly Cloudy
7:56 AM -9.4 °F -27.9 °F -9.4 °F 100% 30.04 in 5.0 mi WSW 10.4 mph - N/A   Partly Cloudy
8:16 AM -9.4 °F -31.4 °F -25.6 °F 45% 30.05 in 3.0 mi WSW 15.0 mph - N/A   Mostly Cloudy
8:36 AM -9.4 °F -30.6 °F -11.2 °F 92% 30.05 in 4.0 mi WSW 13.8 mph 18.4 mph N/A   Mostly Cloudy
8:56 AM -9.4 °F -22.7 °F -25.6 °F 45% 30.05 in 3.0 mi SSW 5.8 mph - N/A   Overcast
9:16 AM -9.4 °F -24.3 °F -18.4 °F 65% 30.06 in 4.0 mi South 6.9 mph - N/A   Mostly Cloudy
9:36 AM -11.2 °F -27.8 °F -23.8 °F 54% 30.07 in 10.0 mi SSW 8.1 mph - N/A   Mostly Cloudy
9:56 AM -9.4 °F -26.8 °F -20.2 °F 59% 30.07 in 8.0 mi SSW 9.2 mph - N/A   Mostly Cloudy
10:16 AM -9.4 °F -27.9 °F -18.4 °F 65% 30.07 in 6.0 mi SW 10.4 mph - N/A   Mostly Cloudy
10:36 AM -9.4 °F -26.8 °F -23.8 °F 49% 30.08 in 5.0 mi SW 9.2 mph - N/A   Mostly Cloudy
10:56 AM -9.4 °F -25.6 °F -16.6 °F 71% 30.09 in 5.0 mi WSW 8.1 mph - N/A   Overcast
11:16 AM -9.4 °F -25.6 °F -23.8 °F 49% 30.09 in 4.0 mi SW 8.1 mph - N/A   Overcast
11:36 AM -9.4 °F -26.8 °F -14.8 °F 77% 30.10 in 3.0 mi SW 9.2 mph - N/A   Overcast
11:56 AM -7.6 °F -23.4 °F -23.8 °F 45% 30.11 in 3.0 mi WSW 8.1 mph 17.3 mph N/A   Overcast
12:16 PM -9.4 °F -29.8 °F -14.8 °F 77% 30.12 in 3.0 mi SW 12.7 mph - N/A   Overcast
12:36 PM -7.6 °F -23.4 °F -20.2 °F 54% 30.12 in 2.0 mi WSW 8.1 mph - N/A   Overcast
12:56 PM -7.6 °F -26.6 °F -9.4 °F 92% 30.12 in 2.5 mi WSW 11.5 mph - N/A   Overcast
1:16 PM -7.6 °F -29.8 °F -25.6 °F 41% 30.12 in 2.5 mi WSW 16.1 mph - N/A   Overcast
1:36 PM -7.6 °F -29.8 °F -7.6 °F 100% 30.13 in 2.0 mi West 16.1 mph - N/A   Overcast
1:56 PM -7.6 °F -28.3 °F - N/A% 30.14 in 2.5 mi WSW 13.8 mph 18.4 mph N/A   Overcast
2:16 PM -7.6 °F -29.8 °F -20.2 °F 54% 30.14 in 4.0 mi West 16.1 mph - N/A   Overcast
2:36 PM -7.6 °F -30.5 °F -9.4 °F 92% 30.15 in 6.0 mi WSW 17.3 mph - N/A   Overcast
2:56 PM -5.8 °F -26.8 °F -16.6 °F 60% 30.16 in 4.0 mi West 15.0 mph - N/A   Overcast
3:16 PM -5.8 °F -27.5 °F -7.6 °F 92% 30.16 in 5.0 mi West 16.1 mph - N/A   Overcast
3:36 PM -7.6 °F -29.8 °F -16.6 °F 65% 30.17 in 3.0 mi West 16.1 mph - N/A   Overcast
3:56 PM -5.8 °F -27.5 °F -9.4 °F 84% 30.18 in 10.0 mi West 16.1 mph 21.9 mph N/A   Overcast
4:16 PM -5.8 °F -27.5 °F -14.8 °F 65% 30.18 in 5.0 mi West 16.1 mph - N/A   Overcast
4:36 PM -5.8 °F -26.0 °F -11.2 °F 77% 30.19 in 9.0 mi West 13.8 mph - N/A   Overcast
4:56 PM -5.8 °F -27.5 °F -11.2 °F 77% 30.19 in 7.0 mi West 16.1 mph - N/A   Overcast
5:16 PM -5.8 °F -27.5 °F -13.0 °F 71% 30.20 in 8.0 mi West 16.1 mph - N/A   Overcast
5:36 PM -5.8 °F -26.0 °F -13.0 °F 71% 30.21 in 10.0 mi West 13.8 mph 17.3 mph N/A   Overcast
5:56 PM -7.6 °F -28.3 °F -14.8 °F 71% 30.22 in 10.0 mi West 13.8 mph - N/A   Overcast
6:16 PM -7.6 °F -28.3 °F -14.8 °F 71% 30.22 in 10.0 mi West 13.8 mph - N/A   Mostly Cloudy
6:36 PM -7.6 °F -26.6 °F -13.0 °F 77% 30.22 in 10.0 mi West 11.5 mph - N/A   Mostly Cloudy
6:56 PM -7.6 °F -24.6 °F -14.8 °F 71% 30.23 in 10.0 mi West 9.2 mph - N/A   Overcast
7:16 PM -7.6 °F -27.5 °F -16.6 °F 65% 30.23 in 4.0 mi WSW 12.7 mph - N/A   Overcast
7:36 PM -7.6 °F -26.6 °F -14.8 °F 71% 30.23 in 10.0 mi West 11.5 mph - N/A   Overcast
7:56 PM -7.6 °F -22.1 °F -14.8 °F 71% 30.23 in 9.0 mi West 6.9 mph - N/A   Overcast
8:16 PM -7.6 °F -24.6 °F -16.6 °F 65% 30.23 in 5.0 mi WSW 9.2 mph - N/A   Overcast
8:36 PM -9.4 °F -25.6 °F -14.8 °F 77% 30.23 in 10.0 mi WSW 8.1 mph - N/A   Overcast
8:56 PM -9.4 °F -24.3 °F -16.6 °F 71% 30.24 in 10.0 mi WSW 6.9 mph - N/A   Mostly Cloudy
9:16 PM -9.4 °F -26.8 °F -14.8 °F 77% 30.24 in 10.0 mi WSW 9.2 mph - N/A   Mostly Cloudy
9:36 PM -9.4 °F -25.6 °F -20.2 °F 59% 30.24 in 10.0 mi WSW 8.1 mph - N/A   Scattered Clouds
9:56 PM -9.4 °F -24.3 °F -14.8 °F 77% 30.25 in 10.0 mi SW 6.9 mph - N/A   Mostly Cloudy
10:16 PM -11.2 °F -26.4 °F -20.2 °F 64% 30.25 in 10.0 mi SW 6.9 mph - N/A   Mostly Cloudy
10:36 PM -11.2 °F -29.0 °F -18.4 °F 70% 30.25 in 10.0 mi SW 9.2 mph - N/A   Mostly Cloudy
10:56 PM -11.2 °F -30.1 °F -18.4 °F 70% 30.26 in 10.0 mi WSW 10.4 mph - N/A   Scattered Clouds
11:16 PM -11.2 °F -31.1 °F -22.0 °F 59% 30.26 in 10.0 mi WSW 11.5 mph - N/A   Clear
11:36 PM -11.2 °F -27.8 °F -20.2 °F 64% 30.26 in 9.0 mi WSW 8.1 mph - N/A   Partly Cloudy
11:56 PM -11.2 °F -29.0 °F -22.0 °F 59% 30.26 in 4.0 mi WSW 9.2 mph - N/A   Mostly Cloudy